Station Historical Data
Daily Summary for February 2, 2017 Units:  English    Metric   Both
« Previous Day
Next Day »
Daily Weekly Monthly Yearly Custom
  High: Low: Average:
Temperature: 30.9 °F 18.0 °F 24.8 °F
Dew Point: 26.1 °F 8.8 °F 15.9 °F
Humidity: 86% 53% 69%
Wind Speed: 14.0mph 0.0mph 5.8mph
Wind Gust: 24.0mph - -
Wind- - West
Pressure: 30.26 in 30.00 in -
Precipitation: 0.00 in    
Historical Graphs
 
 
Tabular Data for February 2, 2017
Time Temperature Dew Point Pressure Wind Wind Speed Wind Gust Humidity Rainfall Rate (Hourly)
00:04 30.9 °F 25.8 °F 30.00 in NW 7.0 mph 10.0 mph 81% 0.00 in
00:09 30.7 °F 25.9 °F 30.00 in WNW 3.0 mph 8.0 mph 82% 0.00 in
00:14 30.5 °F 26.0 °F 30.00 in West 5.0 mph 11.0 mph 83% 0.00 in
00:19 30.4 °F 25.9 °F 30.00 in West 4.0 mph 8.0 mph 83% 0.00 in
00:24 30.4 °F 26.1 °F 30.00 in West 4.0 mph 8.0 mph 84% 0.00 in
00:29 30.2 °F 25.9 °F 30.00 in WNW 3.0 mph 7.0 mph 84% 0.00 in
00:34 30.0 °F 25.8 °F 30.00 in NW 5.0 mph 12.0 mph 84% 0.00 in
00:39 29.9 °F 25.9 °F 30.00 in West 5.0 mph 9.0 mph 85% 0.00 in
00:44 29.8 °F 25.8 °F 30.00 in WSW 8.0 mph 11.0 mph 85% 0.00 in
00:49 29.6 °F 25.6 °F 30.00 in NNW 5.0 mph 8.0 mph 85% 0.00 in
00:54 29.7 °F 25.7 °F 30.00 in West 4.0 mph 8.0 mph 85% 0.00 in
00:59 29.7 °F 25.7 °F 30.00 in West 4.0 mph 8.0 mph 85% 0.00 in
01:04 29.6 °F 25.6 °F 30.00 in West 3.0 mph 7.0 mph 85% 0.00 in
01:09 29.6 °F 25.9 °F 30.00 in West 5.0 mph 6.0 mph 86% 0.00 in
01:14 29.7 °F 25.7 °F 30.00 in West 3.0 mph 6.0 mph 85% 0.00 in
01:19 29.8 °F 25.8 °F 30.00 in WNW 6.0 mph 8.0 mph 85% 0.00 in
01:24 29.8 °F 25.8 °F 30.00 in SW 5.0 mph 8.0 mph 85% 0.00 in
01:29 29.8 °F 25.8 °F 30.01 in West 3.0 mph 8.0 mph 85% 0.00 in
01:34 29.8 °F 25.6 °F 30.01 in SW 3.0 mph 8.0 mph 84% 0.00 in
01:39 29.6 °F 25.4 °F 30.01 in West 2.0 mph 7.0 mph 84% 0.00 in
01:44 29.6 °F 25.4 °F 30.02 in WSW 3.0 mph 8.0 mph 84% 0.00 in
01:49 29.5 °F 25.3 °F 30.02 in West 3.0 mph 7.0 mph 84% 0.00 in
01:54 29.5 °F 25.3 °F 30.03 in WNW 3.0 mph 8.0 mph 84% 0.00 in
01:59 29.5 °F 25.3 °F 30.03 in West 4.0 mph 9.0 mph 84% 0.00 in
02:04 29.4 °F 25.2 °F 30.03 in West 4.0 mph 9.0 mph 84% 0.00 in
02:09 29.3 °F 25.1 °F 30.03 in West 5.0 mph 11.0 mph 84% 0.00 in
02:14 29.3 °F 25.1 °F 30.03 in West 5.0 mph 11.0 mph 84% 0.00 in
02:19 29.1 °F 24.9 °F 30.03 in West 5.0 mph 11.0 mph 84% 0.00 in
02:24 28.9 °F 24.7 °F 30.03 in WSW 5.0 mph 7.0 mph 84% 0.00 in
02:29 29.0 °F 24.8 °F 30.03 in WSW 4.0 mph 10.0 mph 84% 0.00 in
02:34 29.0 °F 24.8 °F 30.03 in West 4.0 mph 10.0 mph 84% 0.00 in
02:39 29.0 °F 24.8 °F 30.03 in West 10.0 mph 10.0 mph 84% 0.00 in
02:44 29.1 °F 24.9 °F 30.03 in West 4.0 mph 10.0 mph 84% 0.00 in
02:49 29.1 °F 24.9 °F 30.03 in NW 4.0 mph 8.0 mph 84% 0.00 in
02:54 29.0 °F 24.5 °F 30.03 in WSW 4.0 mph 7.0 mph 83% 0.00 in
02:59 29.0 °F 24.5 °F 30.03 in West 5.0 mph 9.0 mph 83% 0.00 in
03:04 29.0 °F 24.5 °F 30.03 in West 5.0 mph 11.0 mph 83% 0.00 in
03:09 29.1 °F 24.6 °F 30.04 in West 5.0 mph 11.0 mph 83% 0.00 in
03:14 29.1 °F 24.6 °F 30.04 in West 6.0 mph 13.0 mph 83% 0.00 in
03:19 29.0 °F 24.8 °F 30.03 in WNW 6.0 mph 13.0 mph 84% 0.00 in
03:24 28.7 °F 24.5 °F 30.04 in NNW 7.0 mph 7.0 mph 84% 0.00 in
03:29 28.4 °F 24.5 °F 30.04 in NNW 1.0 mph 8.0 mph 85% 0.00 in
03:34 28.0 °F 24.4 °F 30.04 in NNW 4.0 mph 6.0 mph 86% 0.00 in
03:39 28.0 °F 24.4 °F 30.04 in NNW 3.0 mph 6.0 mph 86% 0.00 in
03:44 27.9 °F 24.3 °F 30.04 in NNW 3.0 mph 8.0 mph 86% 0.00 in
03:49 27.8 °F 23.9 °F 30.04 in NNW 4.0 mph 7.0 mph 85% 0.00 in
03:54 27.6 °F 23.1 °F 30.05 in NNW 5.0 mph 11.0 mph 83% 0.00 in
03:59 27.6 °F 22.2 °F 30.05 in NNW 3.0 mph 10.0 mph 80% 0.00 in
04:04 27.6 °F 21.6 °F 30.05 in NW 5.0 mph 8.0 mph 78% 0.00 in
04:09 27.5 °F 20.9 °F 30.05 in NW 4.0 mph 8.0 mph 76% 0.00 in
04:14 27.4 °F 20.5 °F 30.05 in NW 4.0 mph 9.0 mph 75% 0.00 in
04:19 27.4 °F 20.5 °F 30.05 in NW 3.0 mph 9.0 mph 75% 0.00 in
04:24 27.3 °F 20.4 °F 30.05 in WNW 2.0 mph 5.0 mph 75% 0.00 in
04:29 27.2 °F 20.3 °F 30.05 in NNW 4.0 mph 7.0 mph 75% 0.00 in
04:34 27.0 °F 20.1 °F 30.05 in NW 1.0 mph 6.0 mph 75% 0.00 in
04:39 26.9 °F 19.7 °F 30.06 in NW 4.0 mph 8.0 mph 74% 0.00 in
04:44 26.9 °F 19.7 °F 30.06 in NW 4.0 mph 8.0 mph 74% 0.00 in
04:49 26.9 °F 19.7 °F 30.06 in NW 3.0 mph 7.0 mph 74% 0.00 in
04:54 26.7 °F 19.5 °F 30.06 in NW 3.0 mph 6.0 mph 74% 0.00 in
04:59 26.6 °F 19.4 °F 30.06 in NW 2.0 mph 5.0 mph 74% 0.00 in
05:04 26.4 °F 19.2 °F 30.06 in NW 3.0 mph 6.0 mph 74% 0.00 in
05:09 26.3 °F 19.1 °F 30.06 in NW 2.0 mph 3.0 mph 74% 0.00 in
05:14 26.1 °F 19.3 °F 30.06 in NW 1.0 mph 4.0 mph 75% 0.00 in
05:19 26.0 °F 19.5 °F 30.06 in NW 1.0 mph 3.0 mph 76% 0.00 in
05:24 26.1 °F 19.6 °F 30.06 in NW 2.0 mph 4.0 mph 76% 0.00 in
05:29 26.0 °F 19.8 °F 30.06 in NW 2.0 mph 4.0 mph 77% 0.00 in
05:34 26.0 °F 19.8 °F 30.06 in West 4.0 mph 7.0 mph 77% 0.00 in
05:39 26.1 °F 19.6 °F 30.06 in NW 3.0 mph 7.0 mph 76% 0.00 in
05:44 26.0 °F 19.5 °F 30.06 in WNW 3.0 mph 7.0 mph 76% 0.00 in
05:49 25.9 °F 19.1 °F 30.07 in WNW 3.0 mph 8.0 mph 75% 0.00 in
05:54 25.7 °F 18.9 °F 30.06 in West 5.0 mph 8.0 mph 75% 0.00 in
05:59 25.6 °F 18.5 °F 30.06 in West 3.0 mph 7.0 mph 74% 0.00 in
06:04 25.4 °F 18.3 °F 30.06 in Calm   5.0 mph 74% 0.00 in
06:09 25.3 °F 18.2 °F 30.07 in West 1.0 mph 6.0 mph 74% 0.00 in
06:14 25.1 °F 18.0 °F 30.07 in WNW 2.0 mph 3.0 mph 74% 0.00 in
06:19 25.0 °F 18.2 °F 30.07 in West 1.0 mph 3.0 mph 75% 0.00 in
06:24 25.0 °F 18.2 °F 30.07 in West 1.0 mph 4.0 mph 75% 0.00 in
06:29 25.2 °F 18.4 °F 30.07 in West 2.0 mph 5.0 mph 75% 0.00 in
06:34 25.3 °F 18.5 °F 30.08 in West 2.0 mph 5.0 mph 75% 0.00 in
06:39 25.4 °F 18.9 °F 30.08 in West 1.0 mph 4.0 mph 76% 0.00 in
06:44 25.6 °F 19.4 °F 30.08 in West 2.0 mph 7.0 mph 77% 0.00 in
06:49 25.6 °F 19.4 °F 30.08 in West 3.0 mph 7.0 mph 77% 0.00 in
06:54 25.7 °F 18.9 °F 30.08 in West 4.0 mph 7.0 mph 75% 0.00 in
06:59 25.7 °F 18.6 °F 30.09 in West 3.0 mph 7.0 mph 74% 0.00 in
07:04 25.8 °F 18.7 °F 30.09 in West 3.0 mph 7.0 mph 74% 0.00 in
07:09 25.8 °F 18.7 °F 30.09 in WNW 4.0 mph 5.0 mph 74% 0.00 in
07:14 25.8 °F 18.7 °F 30.10 in West 3.0 mph 5.0 mph 74% 0.00 in
07:19 25.8 °F 18.7 °F 30.09 in WNW 3.0 mph 8.0 mph 74% 0.00 in
07:24 25.7 °F 18.6 °F 30.10 in West 4.0 mph 9.0 mph 74% 0.00 in
07:29 25.6 °F 18.5 °F 30.10 in West 5.0 mph 10.0 mph 74% 0.00 in
07:34 25.4 °F 18.3 °F 30.10 in West 5.0 mph 10.0 mph 74% 0.00 in
07:39 25.4 °F 18.6 °F 30.10 in West 6.0 mph 9.0 mph 75% 0.00 in
07:44 25.4 °F 18.3 °F 30.10 in NW 5.0 mph 9.0 mph 74% 0.00 in
07:49 25.4 °F 17.9 °F 30.10 in WNW 5.0 mph 10.0 mph 73% 0.00 in
07:54 25.5 °F 18.4 °F 30.10 in West 5.0 mph 10.0 mph 74% 0.00 in
07:59 25.4 °F 18.3 °F 30.10 in West 5.0 mph 9.0 mph 74% 0.00 in
08:04 25.4 °F 18.3 °F 30.10 in West 4.0 mph 9.0 mph 74% 0.00 in
08:09 25.3 °F 18.2 °F 30.10 in West 2.0 mph 8.0 mph 74% 0.00 in
08:14 25.2 °F 17.8 °F 30.10 in NW 8.0 mph 8.0 mph 73% 0.00 in
08:19 25.1 °F 17.7 °F 30.10 in WNW 4.0 mph 8.0 mph 73% 0.00 in
08:24 24.9 °F 17.8 °F 30.10 in WNW 2.0 mph 6.0 mph 74% 0.00 in
08:29 24.8 °F 17.7 °F 30.11 in West 4.0 mph 9.0 mph 74% 0.00 in
08:34 25.0 °F 18.2 °F 30.11 in West 4.0 mph 9.0 mph 75% 0.00 in
08:39 25.3 °F 18.5 °F 30.11 in West 4.0 mph 7.0 mph 75% 0.00 in
08:44 25.7 °F 18.9 °F 30.11 in West 4.0 mph 9.0 mph 75% 0.00 in
08:49 25.7 °F 18.9 °F 30.11 in NW 5.0 mph 12.0 mph 75% 0.00 in
08:54 25.7 °F 18.9 °F 30.11 in West 8.0 mph 10.0 mph 75% 0.00 in
08:59 25.7 °F 19.2 °F 30.11 in West 6.0 mph 10.0 mph 76% 0.00 in
09:04 25.9 °F 19.4 °F 30.11 in West 5.0 mph 9.0 mph 76% 0.00 in
09:09 25.9 °F 19.4 °F 30.12 in WNW 6.0 mph 11.0 mph 76% 0.00 in
09:14 26.0 °F 19.5 °F 30.12 in WSW 4.0 mph 13.0 mph 76% 0.00 in
09:19 25.9 °F 18.7 °F 30.12 in West 7.0 mph 14.0 mph 74% 0.00 in
09:24 25.9 °F 17.8 °F 30.12 in WNW 8.0 mph 12.0 mph 71% 0.00 in
09:29 25.8 °F 18.0 °F 30.12 in WNW 8.0 mph 11.0 mph 72% 0.00 in
09:34 25.6 °F 16.5 °F 30.13 in WNW 6.0 mph 14.0 mph 68% 0.00 in
09:39 25.7 °F 15.9 °F 30.13 in WNW 7.0 mph 18.0 mph 66% 0.00 in
09:44 25.7 °F 15.9 °F 30.13 in WNW 8.0 mph 18.0 mph 66% 0.00 in
09:49 25.9 °F 16.1 °F 30.13 in WNW 6.0 mph 14.0 mph 66% 0.00 in
09:54 26.1 °F 15.9 °F 30.13 in WNW 5.0 mph 13.0 mph 65% 0.00 in
09:59 26.3 °F 16.5 °F 30.13 in WNW 6.0 mph 14.0 mph 66% 0.00 in
10:04 26.6 °F 16.8 °F 30.13 in West 5.0 mph 12.0 mph 66% 0.00 in
10:09 26.5 °F 16.7 °F 30.13 in West 4.0 mph 12.0 mph 66% 0.00 in
10:14 27.0 °F 17.5 °F 30.13 in West 4.0 mph 11.0 mph 67% 0.00 in
10:19 27.5 °F 17.6 °F 30.13 in West 5.0 mph 12.0 mph 66% 0.00 in
10:24 27.5 °F 17.6 °F 30.13 in WSW 8.0 mph 12.0 mph 66% 0.00 in
10:29 27.3 °F 17.4 °F 30.13 in West 4.0 mph 14.0 mph 66% 0.00 in
10:34 26.9 °F 17.0 °F 30.13 in WNW 9.0 mph 12.0 mph 66% 0.00 in
10:39 26.9 °F 16.7 °F 30.13 in West 7.0 mph 15.0 mph 65% 0.00 in
10:44 26.9 °F 17.0 °F 30.14 in West 7.0 mph 15.0 mph 66% 0.00 in
10:49 27.0 °F 17.1 °F 30.14 in West 7.0 mph 13.0 mph 66% 0.00 in
10:54 26.9 °F 17.0 °F 30.14 in West 7.0 mph 14.0 mph 66% 0.00 in
10:59 27.2 °F 17.0 °F 30.14 in West 8.0 mph 14.0 mph 65% 0.00 in
11:04 27.2 °F 16.6 °F 30.14 in West 7.0 mph 14.0 mph 64% 0.00 in
11:09 26.9 °F 16.3 °F 30.14 in WNW 8.0 mph 16.0 mph 64% 0.00 in
11:14 26.4 °F 15.9 °F 30.14 in WNW 9.0 mph 19.0 mph 64% 0.00 in
11:19 26.5 °F 16.0 °F 30.14 in WNW 8.0 mph 16.0 mph 64% 0.00 in
11:24 26.5 °F 15.2 °F 30.14 in NNW 4.0 mph 15.0 mph 62% 0.00 in
11:29 26.7 °F 15.4 °F 30.14 in West 13.0 mph 17.0 mph 62% 0.00 in
11:34 26.6 °F 14.6 °F 30.14 in West 13.0 mph 18.0 mph 60% 0.00 in
11:39 26.5 °F 14.5 °F 30.14 in SW 4.0 mph 19.0 mph 60% 0.00 in
11:44 26.4 °F 14.4 °F 30.14 in West 8.0 mph 24.0 mph 60% 0.00 in
11:49 27.3 °F 14.8 °F 30.13 in West 8.0 mph 24.0 mph 59% 0.00 in
11:54 27.6 °F 14.7 °F 30.13 in West 8.0 mph 15.0 mph 58% 0.00 in
11:59 28.7 °F 15.0 °F 30.13 in WNW 9.0 mph 15.0 mph 56% 0.00 in
12:04 28.7 °F 14.1 °F 30.13 in West 9.0 mph 17.0 mph 54% 0.00 in
12:09 28.0 °F 13.5 °F 30.14 in West 5.0 mph 13.0 mph 54% 0.00 in
12:14 28.4 °F 14.7 °F 30.14 in WNW 3.0 mph 17.0 mph 56% 0.00 in
12:19 28.2 °F 13.7 °F 30.13 in West 8.0 mph 17.0 mph 54% 0.00 in
12:24 27.4 °F 13.3 °F 30.13 in West 10.0 mph 20.0 mph 55% 0.00 in
12:29 26.8 °F 13.6 °F 30.13 in SW 5.0 mph 18.0 mph 57% 0.00 in
12:34 26.8 °F 13.6 °F 30.13 in WSW 9.0 mph 16.0 mph 57% 0.00 in
12:39 26.9 °F 14.1 °F 30.13 in WNW 9.0 mph 15.0 mph 58% 0.00 in
12:44 27.9 °F 15.0 °F 30.13 in NW 5.0 mph 20.0 mph 58% 0.00 in
12:49 28.3 °F 15.0 °F 30.13 in WNW 11.0 mph 20.0 mph 57% 0.00 in
12:54 27.8 °F 14.9 °F 30.13 in WNW 11.0 mph 20.0 mph 58% 0.00 in
12:59 27.9 °F 14.6 °F 30.13 in West 10.0 mph 20.0 mph 57% 0.00 in
13:04 28.0 °F 14.7 °F 30.12 in West 10.0 mph 20.0 mph 57% 0.00 in
13:09 27.4 °F 13.7 °F 30.13 in West 11.0 mph 20.0 mph 56% 0.00 in
13:14 26.7 °F 13.5 °F 30.13 in WSW 7.0 mph 16.0 mph 57% 0.00 in
13:19 26.7 °F 13.5 °F 30.13 in WNW 10.0 mph 21.0 mph 57% 0.00 in
13:24 26.4 °F 13.6 °F 30.13 in West 8.0 mph 21.0 mph 58% 0.00 in
13:29 26.5 °F 14.5 °F 30.13 in WNW 10.0 mph 20.0 mph 60% 0.00 in
13:34 26.2 °F 13.8 °F 30.13 in WNW 9.0 mph 18.0 mph 59% 0.00 in
13:39 25.9 °F 13.9 °F 30.13 in WSW 7.0 mph 17.0 mph 60% 0.00 in
13:44 25.8 °F 13.4 °F 30.13 in WNW 9.0 mph 16.0 mph 59% 0.00 in
13:49 25.6 °F 12.9 °F 30.13 in West 7.0 mph 22.0 mph 58% 0.00 in
13:54 26.3 °F 13.1 °F 30.13 in ENE 9.0 mph 19.0 mph 57% 0.00 in
13:59 27.1 °F 13.9 °F 30.13 in West 9.0 mph 20.0 mph 57% 0.00 in
14:04 27.6 °F 13.9 °F 30.13 in West 10.0 mph 22.0 mph 56% 0.00 in
14:09 27.7 °F 13.6 °F 30.13 in West 10.0 mph 22.0 mph 55% 0.00 in
14:14 28.1 °F 13.6 °F 30.13 in West 8.0 mph 17.0 mph 54% 0.00 in
14:19 27.0 °F 13.0 °F 30.14 in West 8.0 mph 15.0 mph 55% 0.00 in
14:24 27.4 °F 13.3 °F 30.14 in WNW 6.0 mph 17.0 mph 55% 0.00 in
14:29 28.1 °F 13.6 °F 30.14 in NW 7.0 mph 18.0 mph 54% 0.00 in
14:34 28.2 °F 13.7 °F 30.14 in WSW 3.0 mph 16.0 mph 54% 0.00 in
14:39 27.2 °F 12.3 °F 30.14 in West 13.0 mph 19.0 mph 53% 0.00 in
14:44 26.4 °F 12.4 °F 30.14 in WSW 11.0 mph 18.0 mph 55% 0.00 in
14:49 27.5 °F 13.8 °F 30.14 in West 12.0 mph 19.0 mph 56% 0.00 in
14:54 26.9 °F 13.3 °F 30.14 in WSW 6.0 mph 18.0 mph 56% 0.00 in
14:59 26.9 °F 13.7 °F 30.15 in West 8.0 mph 18.0 mph 57% 0.00 in
15:04 26.9 °F 13.3 °F 30.15 in West 9.0 mph 20.0 mph 56% 0.00 in
15:09 26.6 °F 13.4 °F 30.15 in West 8.0 mph 20.0 mph 57% 0.00 in
15:14 26.3 °F 13.1 °F 30.15 in NW 9.0 mph 18.0 mph 57% 0.00 in
15:19 26.4 °F 14.0 °F 30.15 in West 7.0 mph 18.0 mph 59% 0.00 in
15:24 26.1 °F 13.7 °F 30.16 in West 7.0 mph 14.0 mph 59% 0.00 in
15:29 26.2 °F 13.8 °F 30.16 in WNW 8.0 mph 17.0 mph 59% 0.00 in
15:34 26.1 °F 13.7 °F 30.17 in West 12.0 mph 13.0 mph 59% 0.00 in
15:39 25.7 °F 13.7 °F 30.17 in West 12.0 mph 18.0 mph 60% 0.00 in
15:44 25.6 °F 14.0 °F 30.17 in WNW 3.0 mph 17.0 mph 61% 0.00 in
15:49 25.4 °F 13.4 °F 30.17 in WSW 10.0 mph 17.0 mph 60% 0.00 in
15:54 25.3 °F 13.7 °F 30.17 in West 8.0 mph 14.0 mph 61% 0.00 in
15:59 25.1 °F 13.5 °F 30.18 in WSW 6.0 mph 18.0 mph 61% 0.00 in
16:04 25.1 °F 13.9 °F 30.18 in West 8.0 mph 18.0 mph 62% 0.00 in
16:09 25.0 °F 13.8 °F 30.18 in West 7.0 mph 14.0 mph 62% 0.00 in
16:14 24.8 °F 13.6 °F 30.18 in WNW 7.0 mph 16.0 mph 62% 0.00 in
16:19 24.4 °F 13.2 °F 30.19 in WNW 8.0 mph 17.0 mph 62% 0.00 in
16:24 24.3 °F 13.5 °F 30.19 in WNW 8.0 mph 17.0 mph 63% 0.00 in
16:29 24.1 °F 13.3 °F 30.19 in WNW 9.0 mph 15.0 mph 63% 0.00 in
16:34 24.0 °F 12.9 °F 30.19 in West 8.0 mph 15.0 mph 62% 0.00 in
16:39 24.0 °F 12.9 °F 30.19 in WSW 5.0 mph 16.0 mph 62% 0.00 in
16:44 23.9 °F 13.1 °F 30.20 in West 5.0 mph 12.0 mph 63% 0.00 in
16:49 23.7 °F 12.9 °F 30.20 in West 10.0 mph 14.0 mph 63% 0.00 in
16:54 23.4 °F 13.0 °F 30.20 in West 9.0 mph 16.0 mph 64% 0.00 in
16:59 23.2 °F 12.5 °F 30.21 in West 3.0 mph 17.0 mph 63% 0.00 in
17:04 22.9 °F 12.2 °F 30.21 in West 8.0 mph 17.0 mph 63% 0.00 in
17:09 22.7 °F 12.0 °F 30.21 in West 9.0 mph 21.0 mph 63% 0.00 in
17:14 22.3 °F 11.2 °F 30.21 in West 9.0 mph 21.0 mph 62% 0.00 in
17:19 22.1 °F 11.4 °F 30.22 in West 7.0 mph 18.0 mph 63% 0.00 in
17:24 22.0 °F 11.0 °F 30.22 in West 7.0 mph 17.0 mph 62% 0.00 in
17:29 21.8 °F 10.4 °F 30.22 in NNW 12.0 mph 19.0 mph 61% 0.00 in
17:34 21.7 °F 10.3 °F 30.22 in WSW 11.0 mph 15.0 mph 61% 0.00 in
17:39 21.5 °F 10.1 °F 30.22 in West 8.0 mph 15.0 mph 61% 0.00 in
17:44 21.3 °F 10.3 °F 30.23 in West 7.0 mph 15.0 mph 62% 0.00 in
17:49 21.1 °F 10.5 °F 30.23 in WSW 6.0 mph 12.0 mph 63% 0.00 in
17:54 21.0 °F 10.7 °F 30.23 in West 6.0 mph 15.0 mph 64% 0.00 in
17:59 20.9 °F 10.3 °F 30.23 in NW 7.0 mph 13.0 mph 63% 0.00 in
18:04 20.7 °F 10.4 °F 30.23 in West 9.0 mph 17.0 mph 64% 0.00 in
18:09 20.7 °F 10.4 °F 30.23 in West 9.0 mph 18.0 mph 64% 0.00 in
18:14 20.6 °F 10.7 °F 30.23 in West 8.0 mph 18.0 mph 65% 0.00 in
18:19 20.5 °F 10.6 °F 30.24 in West 7.0 mph 15.0 mph 65% 0.00 in
18:24 20.4 °F 10.1 °F 30.24 in WNW 8.0 mph 16.0 mph 64% 0.00 in
18:29 20.3 °F 10.1 °F 30.24 in West 8.0 mph 16.0 mph 64% 0.00 in
18:34 20.2 °F 10.0 °F 30.24 in West 8.0 mph 15.0 mph 64% 0.00 in
18:39 20.2 °F 10.3 °F 30.25 in WNW 9.0 mph 15.0 mph 65% 0.00 in
18:44 20.3 °F 10.1 °F 30.25 in WNW 8.0 mph 15.0 mph 64% 0.00 in
18:49 20.2 °F 10.3 °F 30.25 in WNW 10.0 mph 15.0 mph 65% 0.00 in
18:54 20.1 °F 10.2 °F 30.25 in WNW 3.0 mph 12.0 mph 65% 0.00 in
18:59 20.1 °F 10.2 °F 30.25 in WNW 8.0 mph 14.0 mph 65% 0.00 in
19:04 20.0 °F 9.8 °F 30.25 in WSW 14.0 mph 14.0 mph 64% 0.00 in
19:09 20.0 °F 9.8 °F 30.25 in WSW 6.0 mph 15.0 mph 64% 0.00 in
19:14 20.0 °F 9.8 °F 30.26 in West 6.0 mph 15.0 mph 64% 0.00 in
19:19 20.1 °F 9.9 °F 30.26 in West 6.0 mph 18.0 mph 64% 0.00 in
19:24 20.2 °F 10.0 °F 30.26 in West 7.0 mph 18.0 mph 64% 0.00 in
19:29 20.1 °F 9.9 °F 30.26 in West 8.0 mph 14.0 mph 64% 0.00 in
19:34 20.0 °F 9.8 °F 30.26 in WNW 7.0 mph 14.0 mph 64% 0.00 in
19:39 19.8 °F 9.2 °F 30.26 in West 7.0 mph 13.0 mph 63% 0.00 in
19:44 19.6 °F 9.0 °F 30.25 in WSW 5.0 mph 13.0 mph 63% 0.00 in
19:49 19.3 °F 9.1 °F 30.25 in SSW 5.0 mph 11.0 mph 64% 0.00 in
19:54 19.0 °F 8.8 °F 30.25 in WNW 7.0 mph 10.0 mph 64% 0.00 in
19:59 18.9 °F 9.1 °F 30.25 in WNW 5.0 mph 9.0 mph 65% 0.00 in
20:04 18.8 °F 9.0 °F 30.25 in West 3.0 mph 10.0 mph 65% 0.00 in
20:09 18.6 °F 8.8 °F 30.25 in West 1.0 mph 10.0 mph 65% 0.00 in
20:14 18.6 °F 8.8 °F 30.25 in West 5.0 mph 9.0 mph 65% 0.00 in
20:19 18.6 °F 8.8 °F 30.25 in West 5.0 mph 10.0 mph 65% 0.00 in
20:24 18.4 °F 8.9 °F 30.25 in West 5.0 mph 10.0 mph 66% 0.00 in
20:29 18.4 °F 8.9 °F 30.25 in West 5.0 mph 11.0 mph 66% 0.00 in
20:34 18.5 °F 9.0 °F 30.25 in West 5.0 mph 11.0 mph 66% 0.00 in
20:39 18.6 °F 9.1 °F 30.25 in West 5.0 mph 13.0 mph 66% 0.00 in
20:44 18.5 °F 9.4 °F 30.25 in West 1.0 mph 12.0 mph 67% 0.00 in
20:49 18.4 °F 9.3 °F 30.25 in West 3.0 mph 11.0 mph 67% 0.00 in
20:54 18.4 °F 9.3 °F 30.25 in West 6.0 mph 11.0 mph 67% 0.00 in
20:59 18.4 °F 9.3 °F 30.25 in NW 3.0 mph 10.0 mph 67% 0.00 in
21:04 18.5 °F 9.4 °F 30.25 in West 6.0 mph 12.0 mph 67% 0.00 in
21:09 18.4 °F 9.3 °F 30.25 in WNW 7.0 mph 10.0 mph 67% 0.00 in
21:14 18.4 °F 9.3 °F 30.25 in West 6.0 mph 12.0 mph 67% 0.00 in
21:19 18.4 °F 9.3 °F 30.25 in WNW 5.0 mph 12.0 mph 67% 0.00 in
21:24 18.4 °F 9.6 °F 30.25 in West 5.0 mph 12.0 mph 68% 0.00 in
21:29 18.4 °F 9.6 °F 30.25 in West 6.0 mph 11.0 mph 68% 0.00 in
21:34 18.4 °F 9.6 °F 30.25 in West 6.0 mph 10.0 mph 68% 0.00 in
21:39 18.3 °F 9.5 °F 30.25 in West 5.0 mph 10.0 mph 68% 0.00 in
21:44 18.3 °F 9.5 °F 30.25 in West 5.0 mph 10.0 mph 68% 0.00 in
21:49 18.4 °F 9.6 °F 30.25 in West 6.0 mph 11.0 mph 68% 0.00 in
21:54 18.5 °F 9.7 °F 30.25 in West 5.0 mph 11.0 mph 68% 0.00 in
21:59 18.5 °F 9.4 °F 30.25 in WNW 6.0 mph 11.0 mph 67% 0.00 in
22:04 18.6 °F 9.5 °F 30.25 in WNW 12.0 mph 13.0 mph 67% 0.00 in
22:09 18.5 °F 9.4 °F 30.25 in West 5.0 mph 12.0 mph 67% 0.00 in
22:14 18.5 °F 9.4 °F 30.25 in WNW 7.0 mph 10.0 mph 67% 0.00 in
22:19 18.5 °F 9.4 °F 30.25 in West 7.0 mph 9.0 mph 67% 0.00 in
22:24 18.4 °F 9.3 °F 30.25 in West 3.0 mph 9.0 mph 67% 0.00 in
22:29 18.1 °F 9.3 °F 30.25 in WSW 4.0 mph 9.0 mph 68% 0.00 in
22:34 18.0 °F 8.9 °F 30.25 in West 5.0 mph 10.0 mph 67% 0.00 in
22:39 18.3 °F 9.2 °F 30.24 in West 5.0 mph 12.0 mph 67% 0.00 in
22:44 18.3 °F 9.2 °F 30.24 in West 6.0 mph 12.0 mph 67% 0.00 in
22:49 18.3 °F 9.2 °F 30.24 in West 5.0 mph 11.0 mph 67% 0.00 in
22:54 18.4 °F 9.3 °F 30.24 in West 4.0 mph 11.0 mph 67% 0.00 in
22:59 18.6 °F 9.5 °F 30.24 in West 5.0 mph 12.0 mph 67% 0.00 in
23:04 18.8 °F 9.3 °F 30.24 in West 3.0 mph 10.0 mph 66% 0.00 in
23:09 18.8 °F 9.3 °F 30.24 in West 4.0 mph 10.0 mph 66% 0.00 in
23:14 18.7 °F 9.2 °F 30.24 in West 6.0 mph 8.0 mph 66% 0.00 in
23:19 18.8 °F 9.3 °F 30.24 in West 9.0 mph 10.0 mph 66% 0.00 in
23:24 18.9 °F 9.4 °F 30.24 in West 6.0 mph 12.0 mph 66% 0.00 in
23:29 19.0 °F 9.5 °F 30.24 in West 7.0 mph 8.0 mph 66% 0.00 in
23:34 19.1 °F 9.3 °F 30.23 in West 7.0 mph 12.0 mph 65% 0.00 in
23:39 19.1 °F 9.3 °F 30.23 in West 6.0 mph 13.0 mph 65% 0.00 in
23:44 19.1 °F 8.9 °F 30.23 in WNW 6.0 mph 13.0 mph 64% 0.00 in
23:49 19.0 °F 8.8 °F 30.23 in West 6.0 mph 14.0 mph 64% 0.00 in
23:54 18.9 °F 9.1 °F 30.23 in West 6.0 mph 14.0 mph 65% 0.00 in
23:59 18.9 °F 9.1 °F 30.23 in WSW 3.0 mph 15.0 mph 65% 0.00 in
Buffalo, New York, USA
Compliments of Weather Underground - 2.5 mb